Regional Weather Roundup
Issued by NWS

Home | Current Version | Previous Version | Text Only | Print | Product List | Glossary On
Versions: 1 2 3 4 5 6 7 8 9 10 11 12 13 14 15 16 17 18 19 20 21 22 23 24 25 26 27 28 29 30 31 32 33 34 35 36 37 38 39 40 41 42 43 44 45 46 47 48 49 50
000
ASCA42 TJSJ 070310
RWRPR
PUERTO RICO/U.S. VIRGIN ISLANDS HOURLY WEATHER ROUNDUP
NATIONAL WEATHER SERVICE SAN JUAN PR
1100 PM AST MON JUL 06 2015

PRZ001-004-070400-
PUERTO RICO

CITY           SKY/WX    TMP DP  RH WIND       PRES   REMARKS
SAN JUAN LMM   PTCLDY    81  75  83 E8        30.08S
PONCE          CLEAR     81  70  69 E5        30.00S
CEIBA          PTCLDY    81  72  74 E7        30.10S
$$

PRZ006-007-070400-
U.S. VIRGIN ISLANDS

CITY           SKY/WX    TMP DP  RH WIND       PRES   REMARKS
CHARLOTTE AMA  CLOUDY    82  73  74 E9        30.07S
CHRISTIANSTED  PTCLDY    81  72  74 E14       30.07S
$$

HOURLY WEATHER ROUNDUP FOR THE NEWS MEDIA

CITY           SKY/WX    TMP DP  RH WIND       PRES   REMARKS
ORLANDO        CLOUDY    75  70  84 SW5       30.14S
NEW YORK       MOCLDY    74  66  76 SE9       30.10F
NEWARK         CLOUDY    73  68  83 SE6       30.09F
CHICAGO        LGT RAIN  73  69  87 S14G21    29.86F
HARTFORD       CLEAR     66  63  90 CALM      30.12S
BOSTON         PTCLDY    71  64  78 S8        30.10S
DALLAS         MOCLDY    87  69  54 S15       29.95R HX  91
PHILADELPHIA   MOCLDY    77  72  84 SE7       30.07S
LOS ANGELES    CLOUDY    63  59  87 W10       29.99R
WASHINGTON DC  PTCLDY    73  71  93 S3        30.03R


USA.gov is the U.S. government's official web portal to all federal, state and local government web resources and services.